EHI
0 0 0 0 0 0 0 0 0 0 0 0 0 0 0 0 0 0 0 0 0 0 0 0 0 0 0 0 0 0 0 0 0 0 0 0 0 0 0 0 0 0 0
0 0 0 0 0 0 0 0 0 0 0 0 0 0 0 0 0 0 0 0 0 0 0 0 0 0 0 0 0 0 0 0 0 0 0 0 0 0 0 0 0 0 0
0 0 0 0 0 0 0 0 0 0 0 0 0 0 0 0 0 0 0 0 0 0 0 0 0 0 0 0 0 0 0 0 0 0 0 0 0 0 0 0 0 0 0
0 0 0 0 0 0 0 0 0 0 0 0 0 0 0 0 0 0 0 0 0 0 0 0 0 0 0 0 0 0 0 0 0 0 0 0 0 0 0 0 0 0 0
0 0 0 0 0 0 0 0 0 0 0 0 0 0 0 0 0 0 0 0 0 0 0 0 0 0 0 0 0 0 0 0 0 0 0 0 0 0 0 0 0 0 0
0 0 0 0 0 0 0 0 0 0 0 0 0 0 0 0 0 0 0 0 0 0 0 0 0 0 0 0 0 0 0 0 0 0 0 0 0 0 0 0 0 0 0
0 0 0 0 0 0 0 0 0 0 0 0 0 0 0 0 0 0 0 0 0 0 0 0 0 0 0 0 0 0 0 0 0 0 0 0 0 0 0 0 0 0 0
0 0 0 0 0 0 0 0 0 0 0 0 0 0 0 0 0 0 0 0 0 0 0 0 0 0 0 0 0 0 0 0 0 0 0 0 0 0 0 0 0 0 0
0 0 0 0 0 0 0 0 0 0 0 0 0 0 0 0 0 0 0 0 0 0 0 0 0 0 0 0 0 0 0 0 0 0 0 0 0 0 0 0 0 0 0
0 0 0 0 0 0 0 0 0 0 0 0 0 0 0 0 0 0 0 0 0 0 0 0 0 0 0 0 0 0 0 0 0 0 0 0 0 0 0 0 0 0 0
0 0 0 0 0 0 0 0 0 0 0 0 0 0 0 0 0 0 0 0 0 0 0 0 0 0 0 0 0 0 0 0 0 0 0 0 0 0 0 0 0 0 0
0 0 0 0 0 0 0 0 0 0 0 0 0 0 0 0 0 0 0 0 0 0 0 0 0 0 0 0 0 0 0 0 0 0 0 0 0 0 0 0 0 0 0
0 0 0 0 0 0 0 0 0 0 0 0 0 0 0 0 0 0 0 0 0 0 0 0 0 0 0 0 0 0 0 0 0 0 0 0 0 0 0 0 0 0 0
0 0 0 0 0 0 0 0 0 0 0 0 0 0 0 0 0 0 0 0 0 0 0 0 0 0 0 0 0 0 0 0 0 0 0 0 0 0 0 0 0 0 0
0 0 0 0 0 0 0 0 0 0 0 0 0 0 0 0 0 0 0 0 0 0 0 0 0 0 0 0 0 0 0 0 0 0 0 0 0 0 0 0 0 0 0
0 0 0 0 0 0 0 0 0 0 0 0 0 0 0 0 0 0 0 0 0 0 0 0 0 0 0 0 0 0 0 0 0 0 0 0 0 0 0 0 0 0 0
0 0 0 0 0 0 0 0 0 0 0 0 0 0 0 0 0 0 0 0 0 0 0 0 0 0 0 0 0 0 0 0 0 0 0 0 0 0 0 0 0 0 0
0 0 0 0 0 0 0 0 0 0 0 0 0 0 0 0 0 0 0 0 0 0 0 0 0 0 0 0 0 0 0 0 0 0 0 0 0 0 0 0 0 0 0
0 0 0 0 0 0 0 0 0 0 0 0 0 0 0 0 0 0 0 0 0 0 0 0 0 0 0 0 0 0 0 0 0 0 0 0 0 0 0 0 0 0 0
0 0 0 0 0 0 0 0 0 0 0 0 0 0 0 0 0 0 0 0 0 0 0 0 0 0 0 0 0 0 0 0 0 0 0 0 0 0 0 0 0 0 0
0 0 0 0 0 0 0 0 0 0 0 0 0 0 0 0 0 0 0 0 0 0 0 0 0 0 0 0 0 0 0 0 0 0 0 0 0 0 0 0 0 0 0
0 0 0 0 0 0 0 0 0 0 0 0 0 0 0 0 0 0 0 0 0 0 0 0 0 0 0 0 0 0 0 0 0 0 0 0 0 0 0 0 0 0 0
0 0 0 0 0 0 0 0 0 0 0 0 0 0 0 0 0 0 0 0 0 0 0 0 0 0 0 0 0 0 0 0 0 0 0 0 0 0 0 0 0 0 0
0 0 0 0 0 0 0 0 0 0 0 0 0 0 0 0 0 0 0 0 0 0 0 0 0 0 0 0 0 0 0 0 0 0 0 0 0 0 0 0 0 0 0
0 0 0 0 0 0 0 0 0 0 0 0 0 0 0 0 0 0 0 0 0 0 0 0 0 0 0 0 0 0 0 0 0 0 0 0 0 0 0 0 0 0 0
0 0 0 0 0 0 0 0 0 0 0 0 0 0 0 0 0 0 0 0 0 0 0 0 0 0 0 0 0 0 0 0 0 0 0 0 0 0 0 0 0 0 0
Wind_Speed
3 3 2 2 3 2 3 3 3 3 3 3 2 3 3 4 4 4 3 8 9 10 9 9 8 7 6 6 5 4 3 3 3 3 3 3 4 4 5 5 6 6 7
4 4 4 3 4 4 4 4 4 3 3 3 4 4 4 4 5 5 4 5 10 10 11 11 11 10 9 8 7 7 6 5 5 4 4 3 3 3 4 4 5 5 6
5 5 4 4 4 4 4 3 4 3 3 4 5 5 5 5 5 6 6 5 5 9 12 14 13 12 12 11 10 9 8 8 7 6 6 5 4 4 4 4 4 4 4
7 5 5 5 5 4 4 4 4 4 5 5 5 5 5 4 6 7 6 6 5 5 9 15 15 15 14 14 13 12 11 10 9 8 8 7 6 5 5 4 4 3 3
8 7 6 6 5 4 5 5 5 4 5 6 6 6 5 5 6 6 7 8 8 8 7 11 15 14 14 16 15 15 14 13 12 11 10 9 8 7 6 6 5 4 3
7 7 6 6 5 5 5 6 7 6 5 5 5 5 5 5 5 6 7 7 7 9 8 8 8 9 14 17 18 17 16 16 15 14 12 11 10 9 8 7 6 5 5
5 6 6 5 6 6 8 7 6 6 6 3 2 4 4 5 6 6 6 6 7 8 7 8 7 6 6 15 18 19 19 18 17 16 14 13 12 11 10 9 8 7 6
4 4 6 5 5 6 7 7 6 4 4 4 4 2 3 3 5 6 5 6 6 4 6 8 7 8 6 5 10 18 20 19 18 18 17 15 14 13 12 11 9 8 7
2 3 4 5 5 5 6 7 7 7 6 4 5 5 4 4 3 2 3 4 4 4 5 5 7 8 8 6 6 12 16 18 19 19 18 16 15 14 12 11 10 9 8
2 2 3 3 4 4 5 6 6 6 6 5 4 5 6 3 3 3 2 2 3 4 5 4 5 6 7 6 8 12 14 17 21 20 19 18 16 14 13 13 12 11 9
3 3 3 2 3 3 4 4 4 5 5 5 4 4 5 4 4 4 5 3 2 2 3 4 4 4 5 6 6 10 15 19 23 22 20 18 16 15 14 14 12 9 6
3 4 4 3 3 3 3 4 4 4 4 5 4 4 4 4 4 5 6 4 3 2 2 2 3 3 3 4 7 11 15 19 22 22 20 17 16 15 13 11 9 6 4
3 5 4 4 3 3 3 3 3 3 3 4 4 3 4 4 3 3 4 4 3 2 1 1 1 2 2 2 4 10 14 18 20 20 19 16 15 13 11 9 8 7 5
2 4 4 4 4 4 4 3 2 2 2 2 2 2 1 2 2 2 3 2 3 2 2 3 1 2 2 2 4 8 7 15 17 19 18 15 13 11 10 10 9 7 7
3 4 4 5 5 5 5 3 2 3 2 2 2 2 1 2 1 1 1 2 2 3 3 1 1 3 3 2 3 3 3 9 14 15 14 12 10 7 7 7 7 7 8
4 4 5 5 5 6 5 4 4 4 5 5 4 4 4 3 3 3 2 1 0 2 2 1 1 2 3 2 3 2 2 5 7 9 9 8 6 5 5 6 7 8 9
5 5 5 5 6 6 6 6 6 6 6 6 6 6 6 5 4 4 3 3 3 1 1 1 1 2 2 3 3 3 4 3 2 2 3 4 5 5 5 7 8 9 10
5 5 5 6 6 7 7 7 7 7 7 7 7 7 6 5 6 5 4 4 3 2 1 0 1 2 3 3 3 3 3 3 3 3 3 2 3 4 6 7 8 9 9
5 5 6 6 6 7 7 7 7 7 8 7 7 7 6 6 6 5 5 4 3 3 2 2 1 2 2 2 3 3 4 3 3 4 4 4 5 5 5 6 8 9 9
5 5 6 6 6 6 7 7 7 7 8 8 7 7 6 6 5 5 5 4 4 4 3 3 2 2 2 2 2 2 2 3 2 3 4 4 5 6 6 7 8 9 10
5 5 5 6 5 5 6 6 6 7 7 7 7 7 7 8 9 6 5 4 4 3 3 3 2 2 2 2 2 2 2 2 2 2 2 2 2 2 3 6 9 11 12
5 5 6 6 6 6 10 11 8 6 6 6 6 6 6 8 11 12 12 10 7 4 3 2 2 2 2 2 2 2 1 2 2 2 2 2 1 3 3 3 8 12 12
5 5 5 5 6 8 11 12 12 7 6 5 5 5 4 6 7 5 8 11 10 11 8 3 2 1 1 1 1 1 1 0 1 2 1 3 2 3 3 5 11 12 12
4 4 4 5 4 6 10 10 11 6 5 5 4 4 4 4 3 4 4 5 5 5 6 4 2 0 1 1 1 1 1 1 2 2 1 2 2 3 3 4 9 10 10
4 3 3 4 4 4 7 8 7 3 3 4 3 3 3 2 5 6 4 3 4 4 5 6 5 4 5 4 1 1 1 1 2 2 0 1 2 3 3 3 4 6 6
3 3 2 2 2 2 3 5 6 2 2 2 2 3 5 4 5 4 3 1 2 2 2 3 4 5 4 5 5 1 2 2 1 3 2 1 2 3 4 3 2 3 4
Wind_Direction
197 203 211 214 219 215 216 223 230 241 251 256 249 238 237 234 233 228 236 242 238 236 232 224 219 219 219 219 215 204 199 195 181 166 152 135 121 113 107 102 96 92 89
201 204 214 217 221 217 216 219 226 233 244 249 256 246 239 231 230 228 226 238 238 234 232 231 228 224 222 221 219 214 212 213 207 197 187 171 155 140 126 114 107 101 96
208 209 215 222 225 219 218 222 231 229 240 241 250 249 240 231 226 225 223 222 231 233 230 232 232 230 226 223 222 219 216 218 218 213 208 200 189 177 159 141 128 117 108
211 212 220 228 224 214 211 219 224 231 240 239 245 246 238 233 232 227 221 219 220 224 228 230 232 231 229 227 225 222 218 218 220 220 218 213 207 200 190 177 165 152 135
215 215 225 229 216 215 218 225 224 218 237 240 243 247 241 237 238 231 225 222 220 219 219 227 228 228 227 227 228 226 220 216 217 220 221 219 217 215 212 205 196 190 183
220 219 228 226 211 217 225 223 230 224 233 241 248 254 247 240 237 235 234 229 225 224 221 222 224 228 225 225 227 229 225 218 213 216 219 220 220 220 221 219 214 212 211
224 221 231 226 213 220 227 223 224 230 237 219 235 267 263 240 238 238 232 230 231 228 222 222 223 222 227 226 226 228 229 224 217 214 215 219 221 223 225 224 223 223 226
238 230 230 231 220 224 231 226 217 222 227 185 193 235 287 291 253 239 231 234 240 229 227 226 223 224 223 222 226 226 229 228 224 218 215 217 219 223 227 227 228 228 232
280 260 249 242 234 225 235 235 223 224 238 217 197 208 237 251 285 280 243 238 237 230 235 231 227 228 227 226 230 230 227 228 229 226 219 217 218 222 226 228 230 232 235
313 302 283 266 254 243 244 244 230 226 233 239 212 221 232 232 248 288 280 269 249 239 238 236 235 233 229 228 230 230 229 226 229 230 225 218 217 220 225 228 232 235 236
348 344 324 302 281 265 260 258 250 236 232 240 224 208 227 235 230 250 271 269 282 256 242 235 235 235 230 227 228 232 234 233 232 232 229 223 219 222 227 229 230 231 235
348 357 350 344 325 307 287 273 262 251 244 242 236 212 203 206 209 222 249 247 248 255 254 248 242 246 242 234 234 235 235 236 237 233 229 226 223 222 225 226 223 221 228
351 348 353 348 341 327 312 298 278 268 254 247 242 232 220 225 211 212 237 254 248 253 280 282 273 278 266 250 246 237 236 236 235 232 228 226 227 222 218 219 226 228 242
341 345 352 355 351 345 339 332 322 311 305 278 272 257 231 238 222 216 222 235 259 255 253 261 331 327 310 294 266 247 243 236 234 235 230 222 222 223 222 220 228 242 256
355 7 7 9 7 5 4 9 22 12 22 26 20 29 36 20 16 337 257 221 236 266 265 254 326 357 344 334 303 282 260 248 240 234 228 226 224 220 218 223 237 251 261
16 18 22 23 22 20 20 32 36 34 52 43 39 52 48 31 34 30 23 7 254 242 257 85 29 6 348 347 344 358 317 264 251 240 231 221 207 203 218 232 244 255 260
30 32 32 36 36 32 30 43 46 43 55 52 47 56 52 42 46 37 36 36 31 18 268 64 49 11 5 6 13 28 35 28 10 294 250 225 216 221 233 249 255 259 261
41 42 45 49 48 45 43 50 55 53 58 57 51 56 49 50 50 41 44 44 36 26 59 69 36 21 23 17 22 32 41 43 34 0 325 297 273 262 260 258 260 261 263
52 51 56 59 56 55 56 58 64 66 64 61 57 59 53 56 54 45 46 43 32 31 39 81 53 33 29 27 33 36 43 32 29 14 357 341 320 298 284 273 270 270 271
62 60 64 68 68 64 62 64 70 70 68 63 59 59 57 60 64 57 50 40 40 44 46 64 61 43 34 21 38 34 34 28 16 9 357 345 335 326 310 293 285 285 283
68 65 65 65 71 74 71 70 69 73 72 67 57 50 52 59 69 72 69 53 51 51 49 52 50 43 31 22 25 17 26 7 10 14 352 343 339 321 309 299 292 284 277
70 66 62 60 61 69 78 81 80 69 67 65 58 45 47 47 51 55 60 58 59 62 55 51 41 42 22 14 16 24 27 19 341 2 352 298 281 277 273 262 274 275 271
78 68 60 58 61 73 80 83 83 78 71 64 57 47 45 45 52 46 49 48 43 50 61 90 73 46 9 348 36 26 22 327 268 295 339 292 297 281 274 278 288 284 277
85 74 63 56 57 71 84 87 88 79 72 61 56 56 52 26 51 69 59 46 34 32 45 61 90 327 265 253 201 182 215 302 290 274 201 277 301 285 288 288 297 291 281
93 83 74 64 57 52 82 93 94 79 67 50 34 36 44 17 30 60 69 48 26 5 21 35 32 17 1 346 343 115 73 25 316 297 251 256 302 303 295 295 308 318 320
117 108 90 67 50 12 57 99 107 99 77 46 22 10 11 11 15 48 98 70 6 327 347 0 7 5 5 358 17 104 165 167 228 286 281 242 294 333 317 295 285 296 305